This demonstration page uses our WeatherBlox Daily Observations layout. Learn more.

Left ArrowRight Arrow

40.92945, -100.16068

Hourly Observations for September 20, 2016

Temp ( °F °C ) Dew Point ( °F °C ) Humidity (%) Winds ( mph kmh ) Pressure ( in mb ) Visibility ( mi km ) Precip ( " mm )
12:15 am 00:15 Clear 59 15.2 53 11.8 80 80 E 7 11 30.06 1018 10 16 N/A
12:35 am 00:35 Clear 60 15.8 53 11.8 77 77 ESE 7 11 30.03 1017 10 16 N/A
12:55 am 00:55 Clear 62 16.7 53 11.6 72 72 ESE 8 13 30.03 1017 10 16 N/A
1:15 am 01:15 Clear 62 16.4 53 11.6 73 73 ESE 6 9 30.03 1017 10 16 N/A
1:35 am 01:35 Clear 60 15.4 53 11.5 78 78 N N/A 30.03 1017 10 16 N/A
1:55 am 01:55 Clear 59 15 53 11.5 80 80 SE 6 9 30.03 1017 10 16 N/A
2:15 am 02:15 Clear 60 15.3 53 11.7 79 79 ESE 5 7 30.03 1017 10 16 N/A
2:35 am 02:35 Clear 59 15.1 53 11.7 80 80 ESE 5 7 30.03 1017 10 16 N/A
2:55 am 02:55 Clear 59 15.2 53 11.8 80 80 SE 7 11 30.03 1017 10 16 N/A
3:15 am 03:15 Clear 60 15.6 54 12 79 79 ESE 9 15 30.03 1017 10 16 N/A
3:35 am 03:35 Clear 60 15.8 54 12.1 79 79 ESE 8 13 30.03 1017 10 16 N/A
3:55 am 03:55 Clear 60 15.5 54 12.2 81 81 SE 7 11 30.03 1017 10 16 N/A
4:15 am 04:15 Clear 59 15.2 54 12.4 84 84 SE 7 11 30.03 1017 10 16 N/A
4:35 am 04:35 Clear 60 15.5 55 12.7 84 84 SE 8 13 30.03 1017 10 16 N/A
4:55 am 04:55 Clear 59 15.1 55 12.9 87 87 SE 6 9 30.03 1017 10 16 N/A
5:15 am 05:15 Clear 59 15 55 13 88 88 ESE 6 9 30.03 1017 10 16 N/A
5:35 am 05:35 Clear 59 15 56 13.2 89 89 ESE 6 9 30.00 1016 10 16 N/A
5:55 am 05:55 Clear 58 14.5 55 13 91 91 ESE 5 7 30.00 1016 10 16 N/A
6:15 am 06:15 Clear 56 13.6 54 12.4 93 93 E 3 6 30.00 1016 10 16 N/A
6:35 am 06:35 Clear 55 12.9 53 11.6 92 92 ESE 3 6 30.03 1017 10 16 N/A
6:55 am 06:55 Clear 54 12.4 53 11.4 94 94 E 5 7 30.03 1017 7 11 N/A
7:15 am 07:15 Clear 54 12.1 52 11.2 94 94 ESE 6 9 30.03 1017 7 11 N/A
7:35 am 07:35 Sunny with Mist and Fog 58 14.3 57 13.7 96 96 SE 6 9 30.00 1016 5 8 N/A
7:55 am 07:55 Sunny with Mist and Fog 61 16 59 15.2 95 95 SE 6 9 30.00 1016 5 8 N/A
8:15 am 08:15 Sunny with Mist and Fog 62 16.8 60 15.8 94 94 E 6 9 29.97 1015 5 8 N/A
8:35 am 08:35 Sunny 65 18.1 62 16.6 91 91 N N/A 29.97 1015 7 11 N/A
8:55 am 08:55 Sunny 68 19.9 64 17.7 87 87 SSE 7 11 29.97 1015 10 16 N/A
9:15 am 09:15 Sunny 70 21.1 64 17.6 81 81 S 8 13 29.94 1014 10 16 N/A
9:35 am 09:35 Sunny 72 22.4 64 17.6 74 74 S 9 15 29.94 1014 10 16 N/A
9:55 am 09:55 Sunny 75 24 63 17.3 66 66 S 7 11 29.91 1013 10 16 N/A
10:15 am 10:15 Sunny 76 24.6 63 17.3 64 64 S 7 11 29.91 1013 10 16 N/A
10:35 am 10:35 Sunny 78 25.5 62 16.5 58 58 SSW 12 19 29.91 1013 10 16 N/A
10:55 am 10:55 Sunny 79 26 61 16.3 55 55 SW 10 17 29.91 1013 10 16 N/A
11:15 am 11:15 Sunny 79 26 61 16 54 54 SSW 12 19 29.91 1013 10 16 N/A
11:35 am 11:35 Sunny 78 25.7 62 16.5 57 57 SSW 9 15 29.91 1013 10 16 N/A
11:55 am 11:55 Sunny 79 26.1 62 16.9 57 57 S 8 13 29.91 1013 10 16 N/A
12:15 pm 12:15 Sunny 80 26.8 63 17.3 56 56 S 12 19 29.91 1013 10 16 N/A
12:35 pm 12:35 Sunny 82 28 63 17.1 52 52 S 12 19 29.85 1011 10 16 N/A
12:55 pm 12:55 Sunny 87 30.6 62 16.5 43 43 S 13 20 29.83 1010 10 16 N/A
1:15 pm 13:15 Sunny 89 31.8 61 16.3 39 39 S 18 30 29.83 1010 10 16 N/A
1:35 pm 13:35 Sunny 90 32.3 60 15.6 36 36 S 15 24 29.80 1009 10 16 N/A
1:55 pm 13:55 Sunny 90 32.4 56 13.4 31 31 S 13 20 29.80 1009 10 16 N/A
2:15 pm 14:15 Sunny 90 32.3 55 12.5 30 30 S 20 31 29.80 1009 10 16 N/A
2:35 pm 14:35 Sunny 90 32 57 13.7 33 33 SSW 18 30 29.80 1009 10 16 N/A
2:55 pm 14:55 Sunny 90 32 56 13.1 32 32 SSW 20 31 29.80 1009 10 16 N/A
3:15 pm 15:15 Sunny 90 32 57 14.1 34 34 S 18 30 29.80 1009 10 16 N/A
3:35 pm 15:35 Sunny 91 32.5 57 14.1 33 33 S 16 26 29.77 1008 10 16 N/A
3:55 pm 15:55 Sunny 91 33 54 12.1 28 28 SSW 16 26 29.77 1008 10 16 N/A
4:15 pm 16:15 Sunny 92 33.1 54 12.3 28 28 SSW 15 24 29.77 1008 10 16 N/A
4:35 pm 16:35 Sunny 90 32.3 55 12.7 30 30 S 12 19 29.77 1008 10 16 N/A
4:55 pm 16:55 Sunny 91 32.5 54 12.3 29 29 S 9 15 29.77 1008 10 16 N/A
5:15 pm 17:15 Sunny 90 32.4 56 13.6 32 32 S 8 13 29.77 1008 10 16 N/A
5:35 pm 17:35 Sunny 90 32 58 14.2 34 34 S 6 9 29.77 1008 10 16 N/A
5:55 pm 17:55 Sunny 90 32.1 54 12.2 30 30 S 9 15 29.74 1007 10 16 N/A
6:15 pm 18:15 Sunny 86 30.2 54 12 33 33 SSE 8 13 29.74 1007 10 16 N/A
6:35 pm 18:35 Sunny 85 29.4 54 12.1 34 34 S 8 13 29.80 1009 10 16 N/A
6:55 pm 18:55 Sunny 82 27.6 57 13.9 43 43 SSE 7 11 29.80 1009 10 16 N/A
7:15 pm 19:15 Sunny 81 27 56 13.5 43 43 SSE 7 11 29.80 1009 10 16 N/A
7:35 pm 19:35 Sunny 81 27 56 13.1 42 42 SSE 8 13 29.80 1009 10 16 N/A
7:55 pm 19:55 Clear 79 26 56 13.5 46 46 SE 8 13 29.83 1010 10 16 N/A
8:15 pm 20:15 Clear 81 27 56 13.6 44 44 SE 9 15 29.80 1009 10 16 N/A
8:35 pm 20:35 Clear 79 26 58 14.5 49 49 SSE 9 15 29.83 1010 10 16 N/A
8:55 pm 20:55 Clear 77 25 60 15.3 55 55 SSE 10 17 29.83 1010 10 16 N/A
9:15 pm 21:15 Clear 76 24.7 61 16 59 59 SSE 10 17 29.83 1010 10 16 N/A
9:35 pm 21:35 Clear 75 24.1 62 16.5 63 63 SSE 8 13 29.83 1010 10 16 N/A
9:55 pm 21:55 Clear 74 23.5 62 16.6 65 65 SSE 7 11 29.85 1011 10 16 N/A
10:15 pm 22:15 Clear 75 24 62 16.5 63 63 SSE 9 15 29.83 1010 10 16 N/A
10:35 pm 22:35 Clear 76 24.5 61 16.3 60 60 S 13 20 29.83 1010 10 16 N/A
10:55 pm 22:55 Clear 76 24.7 61 16 59 59 SSE 12 19 29.83 1010 10 16 N/A
11:15 pm 23:15 Clear 76 24.6 60 15.6 57 57 SSE 13 20 29.83 1010 10 16 N/A
11:35 pm 23:35 Clear 75 24.1 60 15.5 59 59 SSE 13 20 29.83 1010 10 16 N/A
11:55 pm 23:55 Clear 75 23.8 60 15.4 59 59 SSE 13 20 29.83 1010 10 16 N/A

Powered by AerisWeather